FW2904 Weather Reports


time (UTC)temp
C
wind
direction
speed
KPH
gust
KPH
rain 1hr
cm
rain 24hr
cm
rain mn
cm
humidity
%
barometer
mb
20260906220034 31 207 14.5 24.1 0.00 0.03 0.03 16 1019.4
20260906215535 31 221 16.1 27.4 0.00 0.03 0.03 16 1019.4
20260906215035 31 218 16.1 27.4 0.00 0.03 0.03 16 1019.4
20260906214532 31 222 14.5 24.1 0.00 0.03 0.03 15 1019.5
20260906214034 31 275 12.9 24.1 0.00 0.03 0.03 15 1019.6
20260906213534 31 254 14.5 22.5 0.00 0.03 0.03 16 1019.6
20260906213031 31 231 14.5 27.4 0.00 0.03 0.03 16 1019.6
20260906212531 31 259 14.5 27.4 0.00 0.03 0.03 16 1019.5
20260906212030 31 218 16.1 29.0 0.00 0.03 0.03 16 1019.5
20260906211536 32 259 19.3 33.8 0.00 0.03 0.03 16 1019.8
20260906211530 32 250 16.1 29.0 0.00 0.03 0.03 17 1019.6
20260906210536 32 221 17.7 30.6 0.00 0.03 0.03 16 1020.0
20260906210530 32 246 20.9 33.8 0.00 0.03 0.03 15 1019.9
20260906205530 32 235 19.3 30.6 0.00 0.03 0.03 15 1020.2
20260906205030 32 239 20.9 35.4 0.00 0.03 0.03 15 1020.3
20260906204530 32 221 20.9 35.4 0.00 0.03 0.03 15 1020.5
20260906204030 32 227 20.9 38.6 0.00 0.03 0.03 16 1020.6
20260906203529 32 221 17.7 38.6 0.00 0.03 0.03 15 1020.7
20260906203030 31 247 17.7 32.2 0.00 0.03 0.03 17 1020.6
20260906202531 31 263 22.5 33.8 0.00 0.03 0.03 15 1020.6
20260906202030 32 207 22.5 38.6 0.00 0.03 0.03 15 1020.8
20260906201532 32 216 22.5 38.6 0.00 0.03 0.03 15 1020.8
20260906201032 32 220 24.1 37.0 0.00 0.03 0.03 15 1020.8
20260906200530 31 231 20.9 35.4 0.00 0.03 0.03 16 1020.8
20260906200035 32 217 12.9 25.7 0.00 0.03 0.03 18 1020.8
20260906200029 32 223 17.7 35.4 0.00 0.03 0.03 16 1020.9
20260906195030 31 223 14.5 35.4 0.00 0.03 0.03 17 1020.8
20260906194529 32 240 16.1 35.4 0.00 0.03 0.03 18 1020.8
20260906194030 32 254 16.1 33.8 0.00 0.03 0.03 16 1020.7
20260906193529 32 223 16.1 32.2 0.00 0.03 0.03 15 1020.7
20260906193030 31 250 16.1 32.2 0.00 0.03 0.03 17 1020.9
20260906192529 31 198 17.7 32.2 0.00 0.03 0.03 16 1020.9
20260906192032 31 207 17.7 32.2 0.00 0.03 0.03 16 1021.0
20260906191531 31 230 17.7 32.2 0.00 0.03 0.03 16 1021.2
20260906191029 31 205 19.3 32.2 0.00 0.03 0.03 17 1021.3
20260906190536 31 259 17.7 30.6 0.00 0.03 0.03 19 1021.4
20260906190529 31 230 16.1 30.6 0.00 0.03 0.03 17 1021.3
20260906185539 31 233 20.9 35.4 0.00 0.03 0.03 17 1021.7
20260906185531 31 248 16.1 30.6 0.00 0.03 0.03 16 1021.6
20260906185029 31 251 19.3 35.4 0.00 0.03 0.03 18 1021.6
20260906184037 31 209 14.5 35.4 0.00 0.03 0.03 18 1021.9
20260906184030 31 242 17.7 35.4 0.00 0.03 0.03 17 1021.7
20260906183032 30 230 14.5 29.0 0.00 0.03 0.03 18 1022.0
20260906182531 30 276 17.7 29.0 0.00 0.03 0.03 18 1022.1
20260906182032 30 236 20.9 33.8 0.00 0.03 0.03 16 1022.2
20260906181531 30 253 19.3 33.8 0.00 0.03 0.03 18 1022.3
20260906181028 30 259 19.3 35.4 0.00 0.03 0.03 20 1022.3
20260906180528 30 236 22.5 35.4 0.00 0.03 0.03 18 1022.4
20260906180025 30 243 20.9 37.0 0.00 0.03 0.03 17 1022.4
20260906175527 30 217 20.9 37.0 0.00 0.03 0.03 18 1022.6
20260906175032 30 219 22.5 35.4 0.00 0.03 0.03 20 1022.7
20260906175026 30 234 22.5 37.0 0.00 0.03 0.03 19 1022.7
20260906174032 29 217 22.5 37.0 0.00 0.03 0.03 19 1022.9
20260906174026 30 220 24.1 33.8 0.00 0.03 0.03 19 1022.7
20260906173658 29 244 24.1 37.0 0.00 0.03 0.03 19 1022.9
20260906172521 28 224 24.1 35.4 0.00 0.03 0.03 20 1022.9
20260906172021 28 233 24.1 35.4 0.00 0.03 0.03 20 1022.9
20260906171522 28 219 22.5 32.2 0.00 0.03 0.03 20 1023.0
20260906171023 28 216 22.5 32.2 0.00 0.03 0.03 21 1023.1
20260906170520 28 222 20.9 32.2 0.00 0.03 0.03 21 1023.1
20260906170019 28 238 20.9 30.6 0.00 0.03 0.03 21 1023.1
20260906165519 28 230 20.9 32.2 0.00 0.03 0.03 21 1023.1
20260906165020 28 249 20.9 32.2 0.00 0.03 0.03 23 1023.3
20260906164528 27 213 20.9 30.6 0.00 0.03 0.03 23 1023.4
20260906164521 28 255 20.9 30.6 0.00 0.03 0.03 23 1023.4
20260906163520 27 242 19.3 29.0 0.00 0.03 0.03 24 1023.4
20260906163021 27 251 17.7 29.0 0.00 0.03 0.03 24 1023.4
20260906162521 27 236 17.7 27.4 0.00 0.03 0.03 25 1023.4
20260906162019 27 243 16.1 29.0 0.00 0.03 0.03 26 1023.5
20260906161520 27 220 16.1 29.0 0.00 0.03 0.03 26 1023.5
20260906161022 26 244 16.1 29.0 0.00 0.03 0.03 28 1023.5
20260906160520 26 243 14.5 29.0 0.00 0.03 0.03 31 1023.6
20260906160022 25 240 9.7 27.4 0.00 0.03 0.03 34 1023.5
20260906155519 24 238 4.8 16.1 0.00 0.03 0.03 39 1023.6
20260906155021 23 275 3.2 11.3 0.00 0.03 0.03 44 1023.7
20260906154519 23 277 3.2 11.3 0.00 0.03 0.03 44 1023.8
20260906154019 22 284 1.6 6.4 0.00 0.03 0.03 47 1023.8
20260906153524 22 284 4.8 9.7 0.00 0.03 0.03 48 1023.8
20260906153520 22 284 3.2 9.7 0.00 0.03 0.03 47 1023.8
20260906152527 21 285 3.2 9.7 0.00 0.03 0.03 48 1023.8
20260906152521 21 284 4.8 9.7 0.00 0.03 0.03 45 1023.7
20260906151519 20 290 3.2 6.4 0.00 0.03 0.03 47 1023.8
20260906151024 20 290 1.6 4.8 0.00 0.03 0.03 49 1024.0
20260906151017 20 290 1.6 4.8 0.00 0.03 0.03 52 1024.0
20260906150017 19 290 0.0 3.2 0.00 0.03 0.03 52 1024.1
20260906145517 19 290 1.6 4.8 0.00 0.03 0.03 52 1024.1
20260906145016 18 290 1.6 4.8 0.00 0.03 0.03 51 1024.1
20260906144518 18 290 0.0 4.8 0.00 0.03 0.03 52 1024.1
20260906144016 18 290 1.6 3.2 0.00 0.03 0.03 51 1024.0
20260906143517 17 290 1.6 4.8 0.00 0.03 0.03 53 1024.0
20260906143017 17 290 1.6 6.4 0.00 0.03 0.03 55 1024.1
20260906142515 16 290 1.6 6.4 0.00 0.03 0.03 56 1024.1
20260906142017 16 290 0.0 4.8 0.00 0.03 0.03 57 1024.1
20260906141513 16 290 1.6 6.4 0.00 0.03 0.03 56 1024.2
20260906141016 15 290 1.6 6.4 0.00 0.03 0.03 58 1024.2
20260906140513 15 290 0.0 4.8 0.00 0.03 0.03 58 1024.2
20260906140014 14 290 0.0 3.2 0.00 0.03 0.03 60 1024.1
20260906135511 14 290 0.0 3.2 0.00 0.03 0.03 61 1024.2
20260906135011 13 290 0.0 3.2 0.00 0.03 0.03 63 1024.2
20260906134511 13 290 1.6 4.8 0.00 0.03 0.03 63 1024.2
20260906134012 13 290 0.0 4.8 0.00 0.03 0.03 64 1024.1
20260906133513 13 290 0.0 1.6 0.00 0.03 0.03 64 1024.1
20260906133027 12 290 0.0 1.6 0.00 0.03 0.03 63 1024.0
20260906133015 12 290 0.0 1.6 0.00 0.03 0.03 63 1024.1
20260906132011 12 290 0.0 1.6 0.00 0.03 0.03 63 1024.0
20260906131509 12 290 0.0 1.6 0.00 0.03 0.03 64 1024.0
20260906131010 12 0 0.0 1.6 0.00 0.03 0.03 65 1023.8
20260906130509 11 289 0.0 3.2 0.00 0.03 0.03 66 1023.8
20260906130016 11 290 0.0 3.2 0.00 0.03 0.03 66 1023.8
20260906130011 11 290 0.0 3.2 0.00 0.03 0.03 66 1023.8
20260906125015 11 290 0.0 3.2 0.00 0.03 0.03 66 1023.7
20260906125009 11 290 0.0 3.2 0.00 0.03 0.03 66 1023.8
20260906124007 11 290 0.0 3.2 0.00 0.03 0.03 66 1023.8
20260906123513 11 290 0.0 4.8 0.00 0.03 0.03 67 1023.8
20260906123507 11 290 0.0 1.6 0.00 0.03 0.03 66 1024.0
20260906122513 11 290 0.0 1.6 0.00 0.03 0.03 66 1023.8
20260906122506 11 290 0.0 4.8 0.00 0.03 0.03 66 1023.8
20260906122144 11 290 0.0 0.0 0.00 0.03 0.03 66 1023.8
20260906121009 11 290 0.0 1.6 0.00 0.03 0.03 66 1023.8
20260906120511 11 290 0.0 3.2 0.00 0.03 0.03 66 1023.8
20260906120007 11 290 0.0 3.2 0.00 0.03 0.03 66 1023.7
20260906115509 11 290 0.0 1.6 0.00 0.03 0.03 67 1023.8
20260906115007 11 290 1.6 6.4 0.00 0.03 0.03 67 1023.8
20260906114506 11 290 1.6 6.4 0.00 0.03 0.03 67 1024.0
20260906114011 11 290 1.6 8.0 0.00 0.03 0.03 66 1023.8
20260906114005 11 290 1.6 8.0 0.00 0.03 0.03 67 1024.0
20260906113003 11 290 1.6 6.4 0.00 0.03 0.03 66 1023.7
20260906112511 11 291 1.6 6.4 0.00 0.03 0.03 65 1023.8
20260906112504 11 291 1.6 6.4 0.00 0.03 0.03 66 1023.7
20260906112135 12 291 1.6 4.8 0.00 0.03 0.03 63 1023.8
20260906111003 12 291 0.0 4.8 0.00 0.03 0.03 64 1023.8
20260906110504 12 291 0.0 4.8 0.00 0.03 0.03 64 1023.8
20260906110009 12 291 0.0 6.4 0.00 0.03 0.03 65 1023.8
20260906110003 12 291 1.6 6.4 0.00 0.03 0.03 64 1023.8
20260906104959 11 290 0.0 3.2 0.00 0.03 0.03 67 1023.7
20260906104459 11 290 0.0 0.0 0.00 0.03 0.03 68 1023.8
20260906104001 11 290 0.0 3.2 0.00 0.03 0.03 67 1023.8
20260906103457 11 290 1.6 6.4 0.00 0.03 0.03 64 1023.7
20260906102959 12 290 1.6 11.3 0.00 0.03 0.03 63 1023.8
20260906102459 12 291 1.6 11.3 0.00 0.03 0.03 64 1023.7
20260906102001 12 292 0.0 4.8 0.00 0.03 0.03 63 1023.7
20260906101456 12 292 0.0 4.8 0.00 0.03 0.03 62 1023.6
20260906100955 12 292 0.0 6.4 0.00 0.03 0.03 62 1023.6
20260906100453 12 292 0.0 6.4 0.00 0.03 0.03 63 1023.5
20260906095954 12 292 0.0 1.6 0.00 0.03 0.03 63 1023.6
20260906095452 13 292 0.0 0.0 0.00 0.03 0.03 63 1023.5
20260906094954 13 292 0.0 0.0 0.00 0.03 0.03 63 1023.5
20260906094453 13 292 0.0 0.0 0.00 0.03 0.03 62 1023.5
20260906094003 13 292 0.0 3.2 0.00 0.03 0.03 62 1023.5
20260906093955 13 292 0.0 0.0 0.00 0.03 0.03 62 1023.5
20260906093453 13 292 0.0 3.2 0.00 0.03 0.03 61 1023.5
20260906093126 13 292 0.0 3.2 0.00 0.03 0.03 62 1023.5
20260906092001 13 292 1.6 6.4 0.03 0.03 0.03 62 1023.4
20260906091955 13 292 1.6 4.8 0.03 0.03 0.03 62 1023.5
20260906090953 13 292 1.6 6.4 0.03 0.03 0.03 62 1023.5
20260906090453 13 292 1.6 6.4 0.03 0.03 0.03 64 1023.5
20260906085953 12 292 1.6 6.4 0.03 0.03 0.03 64 1023.5
20260906085453 13 292 1.6 6.4 0.03 0.03 0.03 64 1023.4
20260906084953 13 292 1.6 4.8 0.03 0.03 0.03 64 1023.4
20260906084453 13 292 1.6 6.4 0.03 0.03 0.03 64 1023.4
20260906084001 13 292 0.0 4.8 0.03 0.03 0.03 66 1023.4
20260906083955 13 292 1.6 6.4 0.03 0.03 0.03 64 1023.4
20260906082953 13 292 0.0 3.2 0.03 0.03 0.03 66 1023.5
20260906082459 13 292 1.6 6.4 0.00 0.00 0.00 65 1023.4
20260906082453 13 292 0.0 4.8 0.03 0.03 0.03 67 1023.4
20260906082126 14 292 0.0 6.4 0.00 0.00 0.00 62 1023.4
20260906081453 13 292 1.6 6.4 0.00 0.00 0.00 64 1023.4
20260906080953 13 292 0.0 4.8 0.00 0.00 0.00 62 1023.5
20260906075954 14 292 1.6 6.4 0.00 0.00 0.00 61 1023.4
20260906075452 14 292 1.6 8.0 0.00 0.00 0.00 60 1023.4
20260906074954 15 292 3.2 8.0 0.00 0.00 0.00 58 1023.4
20260906074453 15 292 3.2 11.3 0.00 0.00 0.00 57 1023.4
20260906073953 15 292 3.2 12.9 0.00 0.00 0.00 57 1023.4
20260906073452 15 293 4.8 12.9 0.00 0.00 0.00 57 1023.4
20260906072955 15 284 4.8 12.9 0.00 0.00 0.00 57 1023.3
20260906072454 15 275 4.8 12.9 0.00 0.00 0.00 57 1023.3
20260906071955 15 274 3.2 12.9 0.00 0.00 0.00 57 1023.3
20260906071453 15 286 1.6 6.4 0.00 0.00 0.00 56 1023.1
20260906070952 15 286 1.6 4.8 0.00 0.00 0.00 55 1023.1
20260906070449 15 286 1.6 4.8 0.00 0.00 0.00 54 1023.1
20260906065950 15 286 1.6 6.4 0.00 0.00 0.00 53 1023.1
20260906065450 15 286 1.6 6.4 0.00 0.00 0.00 53 1023.1
20260906064951 15 287 1.6 4.8 0.00 0.00 0.00 52 1023.1
20260906064448 15 279 1.6 6.4 0.00 0.00 0.00 54 1023.3
20260906063951 15 279 1.6 6.4 0.00 0.00 0.00 54 1023.4
20260906063448 15 279 3.2 4.8 0.00 0.00 0.00 53 1023.3
20260906062950 15 279 1.6 4.8 0.00 0.00 0.00 53 1023.1
20260906062449 15 279 3.2 9.7 0.00 0.00 0.00 52 1023.0
20260906061947 16 279 3.2 9.7 0.00 0.00 0.00 49 1023.0
20260906061451 16 279 3.2 9.7 0.00 0.00 0.00 48 1023.0
20260906061445 17 278 1.6 8.0 0.00 0.00 0.00 47 1022.9
20260906060453 18 279 4.8 11.3 0.00 0.00 0.00 42 1022.9
20260906060447 17 0 3.2 8.0 0.00 0.00 0.00 45 1022.9
20260906055944 17 0 3.2 11.3 0.00 0.00 0.00 44 1022.9
20260906054942 19 298 4.8 6.4 0.00 0.00 0.00 39 1023.0
20260906054442 20 17 3.2 6.4 0.00 0.00 0.00 37 1022.9
20260906053942 20 34 1.6 6.4 0.00 0.00 0.00 36 1022.9
20260906053437 21 34 1.6 6.4 0.00 0.00 0.00 37 1022.8
20260906052937 21 48 3.2 12.9 0.00 0.00 0.00 36 1022.7
20260906052440 21 25 4.8 16.1 0.00 0.00 0.00 36 1022.7
20260906051936 21 28 4.8 16.1 0.00 0.00 0.00 36 1022.6
20260906051435 21 23 4.8 9.7 0.00 0.00 0.00 35 1022.6
20260906050937 21 33 3.2 9.7 0.00 0.00 0.00 36 1022.7
20260906050433 21 15 3.2 9.7 0.00 0.00 0.00 36 1022.7
20260906045935 21 22 4.8 14.5 0.00 0.00 0.00 36 1022.8
20260906045434 21 11 4.8 14.5 0.00 0.00 0.00 35 1022.7
20260906044935 21 25 6.4 20.9 0.00 0.00 0.00 35 1022.7
20260906044435 21 9 4.8 20.9 0.00 0.00 0.00 35 1022.8
20260906043932 21 54 4.8 14.5 0.00 0.00 0.00 35 1022.8
20260906043438 21 346 4.8 14.5 0.00 0.00 0.00 35 1022.7
20260906043432 21 350 3.2 8.0 0.00 0.00 0.00 35 1022.7
20260906042430 21 350 4.8 12.9 0.00 0.00 0.00 34 1022.7
20260906041937 20 305 3.2 12.9 0.00 0.00 0.00 35 1022.8
20260906041931 21 349 4.8 12.9 0.00 0.00 0.00 34 1022.7
20260906040931 20 259 1.6 6.4 0.00 0.00 0.00 38 1022.6
20260906040431 20 258 0.0 0.0 0.00 0.00 0.00 40 1022.4
20260906035933 20 258 0.0 0.0 0.00 0.00 0.00 39 1022.6
20260906035431 20 258 0.0 1.6 0.00 0.00 0.00 39 1022.6
20260906034933 21 258 0.0 3.2 0.00 0.00 0.00 38 1022.7
20260906034431 21 258 0.0 3.2 0.00 0.00 0.00 37 1022.7
20260906033931 21 258 0.0 0.0 0.00 0.00 0.00 38 1022.7
20260906033431 21 258 0.0 0.0 0.00 0.00 0.00 37 1022.8
20260906032937 22 258 0.0 3.2 0.00 0.00 0.00 34 1022.8
20260906032931 21 258 0.0 0.0 0.00 0.00 0.00 35 1022.8
20260906031933 22 258 0.0 3.2 0.00 0.00 0.00 34 1022.7
20260906031433 22 258 0.0 0.0 0.00 0.00 0.00 34 1022.7
20260906030931 22 258 0.0 0.0 0.00 0.00 0.00 34 1022.6
20260906030437 23 258 0.0 0.0 0.00 0.00 0.00 32 1022.7
20260906030431 23 258 0.0 0.0 0.00 0.00 0.00 33 1022.6
20260906024933 23 258 0.0 0.0 0.00 0.00 0.00 32 1022.6
20260906024431 23 258 0.0 0.0 0.00 0.00 0.00 31 1022.6
20260906023932 23 258 0.0 0.0 0.00 0.00 0.00 31 1022.6
20260906023431 23 258 0.0 0.0 0.00 0.00 0.00 32 1022.4
20260906022937 23 258 0.0 0.0 0.00 0.00 0.00 31 1022.4
20260906022932 23 258 0.0 0.0 0.00 0.00 0.00 31 1022.4
20260906021933 23 258 0.0 0.0 0.00 0.00 0.00 31 1022.3
20260906021431 23 258 0.0 0.0 0.00 0.00 0.00 32 1022.3
20260906020932 23 258 0.0 4.8 0.00 0.00 0.00 33 1022.3
20260906020434 23 258 1.6 4.8 0.00 0.00 0.00 32 1022.2
20260906015932 23 258 1.6 4.8 0.00 0.00 0.00 31 1022.2
20260906015433 24 258 1.6 3.2 0.00 0.00 0.00 31 1022.1
20260906014932 24 258 3.2 6.4 0.00 0.00 0.00 29 1022.0
20260906014438 25 0 4.8 9.7 0.00 0.00 0.00 27 1021.9
20260906014433 25 258 3.2 9.7 0.00 0.00 0.00 28 1022.0
20260906013430 26 258 4.8 9.7 0.00 0.00 0.00 26 1021.9
20260906012936 27 259 6.4 11.3 0.00 0.00 0.00 25 1021.9
20260906012930 26 258 4.8 9.7 0.00 0.00 0.00 25 1021.9
20260906011932 27 257 6.4 11.3 0.00 0.00 0.00 24 1021.9
20260906011431 27 257 8.0 12.9 0.00 0.00 0.00 24 1021.9
20260906010928 28 257 9.7 16.1 0.00 0.00 0.00 23 1021.9
20260906010428 28 254 8.0 16.1 0.00 0.00 0.00 22 1021.7
20260906010118 30 238 9.7 17.7 0.00 0.00 0.00 21 1021.7
20260906005940 30 241 8.0 14.5 0.00 0.00 0.00 21 1021.7
20260906005928 28 250 8.0 16.1 0.00 0.00 0.00 22 1021.9
20260906005434 29 255 8.0 14.5 0.00 0.00 0.00 22 1021.7
20260906003928 30 251 9.7 20.9 0.00 0.00 0.00 21 1021.7
20260906003429 30 252 9.7 20.9 0.00 0.00 0.00 21 1021.7
20260906002930 30 263 9.7 19.3 0.00 0.00 0.00 20 1021.6
20260906002428 31 281 11.3 25.7 0.00 0.00 0.00 20 1021.6
20260906001926 31 258 12.9 25.7 0.00 0.00 0.00 19 1021.6
20260906001428 31 256 11.3 20.9 0.00 0.00 0.00 19 1021.6
20260906000932 31 238 12.9 27.4 0.00 0.00 0.00 19 1021.6
20260906000926 31 223 11.3 27.4 0.00 0.00 0.00 19 1021.6
20260905235936 31 254 8.0 17.7 0.00 0.00 0.00 21 1021.7
20260905235928 31 221 9.7 25.7 0.00 0.00 0.00 19 1021.6
20260905235428 31 238 6.4 19.3 0.00 0.00 0.00 20 1021.6
20260905234429 31 236 9.7 17.7 0.00 0.00 0.00 19 1021.6
20260905233934 32 230 12.9 22.5 0.00 0.00 0.00 18 1021.6
20260905233928 31 238 12.9 22.5 0.00 0.00 0.00 20 1021.6
20260905232927 32 232 12.9 22.5 0.00 0.00 0.00 19 1021.5
20260905232427 32 215 11.3 22.5 0.00 0.00 0.00 19 1021.6
20260905231938 32 238 9.7 19.3 0.00 0.00 0.00 20 1021.6
20260905231927 32 248 11.3 22.5 0.00 0.00 0.00 19 1021.5
20260905231426 32 222 12.9 25.7 0.00 0.00 0.00 19 1021.5
20260905230928 32 215 11.3 25.7 0.00 0.00 0.00 19 1021.5
20260905225926 32 265 9.7 16.1 0.00 0.00 0.00 20 1021.6
20260905225428 32 260 11.3 22.5 0.00 0.00 0.00 21 1021.6
20260905224932 32 231 12.9 22.5 0.00 0.00 0.00 20 1021.6
20260905224926 32 217 12.9 22.5 0.00 0.00 0.00 19 1021.6
20260905223924 32 235 9.7 22.5 0.00 0.00 0.00 19 1021.6
20260905223426 32 247 9.7 20.9 0.00 0.00 0.00 21 1021.6
20260905222926 32 251 12.9 20.9 0.00 0.00 0.00 20 1021.7
20260905222422 31 238 16.1 27.4 0.00 0.00 0.00 19 1021.9
20260905221925 32 196 16.1 33.8 0.00 0.00 0.00 19 1021.9
20260905221423 32 215 11.3 33.8 0.00 0.00 0.00 18 1021.9
20260905220925 32 288 11.3 19.3 0.00 0.00 0.00 23 1021.9
20260905220430 31 218 14.5 27.4 0.00 0.00 0.00 20 1022.0
20260905220424 31 254 11.3 19.3 0.00 0.00 0.00 22 1022.0